ONEWEB-0426 (50498 NORAD) Tracking and Keplerian Element Data
This shows tracking and keplerian element data for the satellite.
Feedback or suggestion? Click here.
Element | Value |
Catalog | 50498 |
Name | ONEWEB-0426 |
Epoch Orbit | 2294 |
Epoch Day | 140.91667824 |
Epoch Year | 2022 |
RAAN | 305.081 |
Inclination | 87.2172 |
Eccentricity | 0.0003247 |
Argument of Perigee | 91.8801 |
Mean Anonmoly | 201.7811 |
Mean Motion | 14.92380266 |
Decay Rate | 0.00039492 |
L1 | 1 50498U 21132AF 22140.91667824 .00039492 00000+0 38408-2 0 9998 |
L2 | 2 50498 87.2172 305.0810 0003247 91.8801 201.7811 14.92380266 22943 |
Live tracking and technical data element details for ONEWEB-0426 (NORAD 50498). ONEWEB-0426 can be tracked NOW for your location showing map with azimuth and elevation plus other details from your city location.
Track the satellite on the map from your city or location and see movement details for azimuth, elevation, latitude, longitude, range, height, and movement on the map or in text.
IsCatalogInMostPopularTable: catalog: 50498, numindb: 28
Update: records affected: 1
GetName: 50498 ONEWEB-0426
Hit Count: updated at: Mon, 23 May 2022 20:12:18 GMT